Location: Pace/Milton
(30.6162°N, 87.1503°W)
Time: 11:05:11
(UTC-06:00)

Hubble Space Telescope - Pass Details

Date: 02 December 2021
Orbit: 535 x 538 km, 28.5° (Epoch: 21 January)

Event Time Altitude Azimuth Distance (km) Brightness Sun altitude
Exits shadow 04:14:22 33° 123° (ESE) 901 2.3 -28.4°
Drops below altitude 10° 04:16:49 10° 108° (ESE) 1,773 4.4 -27.9°
Sets 04:19:05 0° 104° (ESE) 2,663 5.6 -27.4°
